User: anonymous   Login
Location: Edmonton
(53.5500°N, 113.5000°W)
Time: 10:06:29
(UTC-06:00)
Language:

CZ-4C R/B - Orbit

View from above orbital plane
View from above orbital plane
View from above satellite
View from above satellite

Ground track
Ground track

The orbit data is extracted from the following two-line orbital elements,

1 36416U 10009D   15211.43444927 -.00000084  00000-0  98317-5 0  9993
2 36416 063.4472 307.1720 0319348 358.5925 001.4182 13.69471016270185
Epoch (UTC): 30 July 2015 10:25:36
Eccentricity: 0.0319348
inclination: 63.4472°
perigee height: 766 km
apogee height: 1237 km
right ascension of ascending node: 307.1720°
argument of perigee: 358.5925°
revolutions per day: 13.69471016
mean anomaly at epoch: 1.4182°
orbit number at epoch: 27018

The dashed part of the orbit path shows where the satellite is in the earth's shadow,  

DLR